EW5790 Weather Reports


Display with metric or nautical units.
time (UTC)temp
F
wind
direction
speed
MPH
gust
MPH
rain 1hr
in
rain 24hr
in
rain mn
in
humidity
%
barometer
mb
20260506184502 56 331 0.0 0.0 0.00 0.96 0.91 23 1012.8
20260506183110 56 332 0.0 0.0 0.00 0.96 0.91 20 1012.7
20260506181559 55 182 0.0 0.0 0.00 0.96 0.91 1 1012.6
20260506180051 54 5 0.0 0.0 0.00 0.96 0.91 1 1012.6
20260506174550 54 293 0.0 0.0 0.00 0.96 0.91 1 1012.7
20260506173050 54 312 0.0 0.0 0.00 0.96 0.91 1 1012.6
20260506171537 54 261 0.0 0.0 0.01 0.96 0.91 1 1012.7
20260506170030 53 319 0.0 0.0 0.02 0.96 0.91 1 1012.8
20260506164526 53 333 0.0 0.0 0.03 0.96 0.91 1 1012.5
20260506163038 53 304 0.0 0.0 0.04 0.96 0.91 1 1012.5
20260506161518 53 28 0.0 0.0 0.05 0.95 0.90 1 1012.3
20260506160013 53 80 0.0 0.0 0.06 0.94 0.89 1 1012.2
20260506154526 53 5 0.0 0.0 0.06 0.93 0.88 1 1012.1
20260506153004 52 313 0.0 0.0 0.06 0.91 0.86 1 1012.1
20260506151600 52 327 0.0 0.0 0.07 0.90 0.85 1 1012.1
20260506150056 52 330 0.0 0.0 0.06 0.88 0.83 1 1011.8
20260506144552 52 310 0.0 0.0 0.07 0.87 0.82 1 1011.7
20260506143047 52 17 0.0 0.0 0.08 0.85 0.80 1 1011.5
20260506141542 52 307 0.0 0.0 0.08 0.83 0.78 1 1011.2
20260506140039 52 5 0.0 0.0 0.09 0.81 0.76 1 1011.2
20260506134535 52 355 0.0 0.0 0.09 0.79 0.74 1 1011.1
20260506133030 53 298 0.0 0.0 0.11 0.77 0.72 1 1010.9
20260506131534 53 350 0.0 0.0 0.13 0.75 0.70 1 1010.8
20260506130022 54 294 0.0 0.0 0.13 0.72 0.67 1 1010.3
20260506124518 54 327 0.0 0.0 0.15 0.70 0.65 1 1010.1
20260506123015 54 323 0.0 0.0 0.13 0.66 0.61 1 1009.8
20260506121508 56 298 0.0 0.0 0.12 0.62 0.56 1 1009.4
20260506120010 59 304 0.0 0.0 0.10 0.57 0.53 1 1009.2
20260506114600 60 292 0.0 0.0 0.11 0.55 0.50 1 1008.5
20260506113055 60 347 0.0 0.0 0.13 0.53 0.48 1 1008.5
20260506111551 60 360 0.0 0.0 0.14 0.50 0.45 1 1008.6
20260506110047 60 360 0.0 0.0 0.16 0.48 0.43 1 1008.4
20260506104546 60 252 0.0 0.0 0.15 0.44 0.39 1 1008.0
20260506103037 61 126 0.0 0.0 0.14 0.40 0.35 1 1008.1
20260506101533 61 334 0.0 0.0 0.13 0.36 0.31 1 1008.0
20260506100034 61 13 0.0 0.0 0.12 0.32 0.27 1 1007.6
20260506094525 61 319 0.0 0.0 0.10 0.28 0.24 1 1007.6
20260506093020 61 319 0.0 0.0 0.07 0.26 0.21 1 1007.5
20260506091516 61 319 0.0 0.0 0.05 0.23 0.18 1 1007.1
20260506090011 61 294 0.0 0.0 0.02 0.20 0.15 1 1007.6
20260506084507 61 314 0.0 0.0 0.01 0.19 0.14 1 1006.7
20260506083005 61 277 0.0 0.0 0.02 0.18 0.13 1 1006.5
20260506081611 61 183 0.0 0.0 0.05 0.18 0.13 1 1006.0
20260506073047 61 79 0.0 0.0 0.06 0.16 0.11 1 1005.5
20260506071542 62 347 0.0 0.0 0.03 0.13 0.08 7 1005.6
20260506061526 60 203 0.0 0.0 0.04 0.10 0.05 1 1005.8
20260506044557 59 136 0.0 0.0 0.01 0.06 0.01 8 1006.9
20260506043058 59 107 0.0 0.0 0.01 0.06 0.01 11 1007.0
20260506041601 59 128 0.0 0.0 0.01 0.05 0.00 12 1007.0
20260506040050 59 128 0.0 0.0 0.01 0.05 0.00 9 1007.1
20260506034552 58 130 0.0 0.0 0.01 0.05 0.05 9 1007.5
20260506033041 59 146 0.0 0.0 0.01 0.05 0.05 13 1007.6
20260506031537 59 128 0.0 0.0 0.02 0.04 0.04 17 1007.8
20260506030036 59 118 0.0 0.0 0.04 0.04 0.04 21 1008.0
20260506024530 59 128 0.0 0.0 0.04 0.04 0.04 28 1008.2
20260506023024 60 116 0.0 0.0 0.04 0.04 0.04 38 1008.3
20260506021519 62 117 0.0 0.0 0.02 0.02 0.02 61 1008.2
20260506020015 64 292 0.0 0.0 0.00 0.00 0.00 68 1009.2
20260506014510 67 214 0.0 0.0 0.00 0.00 0.00 64 1008.2
20260506013018 70 256 0.0 0.0 0.00 0.00 0.00 55 1008.2
20260506011507 67 266 0.0 0.0 0.00 0.00 0.00 61 1007.8
20260506010057 67 130 0.0 0.0 0.00 0.00 0.00 65 1007.2
20260506004558 67 130 0.0 0.0 0.00 0.00 0.00 66 1006.8
20260506003052 69 130 0.0 0.0 0.00 0.00 0.00 64 1007.0
20260506001554 70 130 0.0 0.0 0.00 0.00 0.00 60 1007.0
20260506000042 71 146 0.0 0.0 0.00 0.00 0.00 58 1006.9
20260505234537 71 124 0.0 0.0 0.00 0.00 0.00 55 1006.7
20260505233033 72 181 0.0 0.0 0.00 0.00 0.00 56 1007.1
20260505231529 73 101 0.0 0.0 0.00 0.00 0.00 54 1007.3
20260505230023 73 184 0.0 0.0 0.00 0.00 0.00 54 1007.8
20260505224520 73 111 0.0 0.0 0.00 0.00 0.00 55 1007.8
20260505223017 73 175 0.0 0.0 0.00 0.00 0.00 53 1007.8
20260505221512 73 103 0.0 0.0 0.00 0.00 0.00 55 1008.0
20260505220020 73 109 0.0 0.0 0.00 0.00 0.00 55 1007.9
20260505214504 72 169 0.0 0.0 0.00 0.00 0.00 57 1008.0
20260505213100 72 111 0.0 0.0 0.00 0.00 0.00 58 1008.2
20260505211603 70 95 0.0 0.0 0.00 0.00 0.00 56 1008.3
20260505210058 70 118 0.0 0.0 0.00 0.00 0.00 60 1008.6
20260505204546 70 206 0.0 0.0 0.00 0.00 0.00 57 1008.8
20260505203042 70 173 0.0 0.0 0.00 0.00 0.00 57 1009.0
20260505201537 70 202 0.0 0.0 0.00 0.00 0.00 58 1009.3
20260505200039 70 117 0.0 0.0 0.00 0.00 0.00 59 1009.4
20260505194528 70 93 0.0 0.0 0.00 0.00 0.00 59 1009.7
20260505193024 71 250 0.0 0.0 0.00 0.00 0.00 59 1009.9
20260505191526 71 313 0.0 0.0 0.00 0.00 0.00 56 1010.2
20260505190019 71 355 0.0 0.0 0.00 0.00 0.00 58 1010.3